[[{"header":{"parameterUnit":"m.s-1","parameterCategory":1,"la1":30.2991,"la2":30.254,"lo1":-89.0895,"lo2":-89.0444,"dy":0.0017,"dx":0.0017,"nx":28,"ny":28,"refTime":"2025-01-29T03:00:00:Z","depth":0,"parameterNumber":2,"parameterNumberName":"U-component_of_WINDS"},"data":[0,0,0,0,0,0,0,0,0,0,0,0,0,0,0,0,0,0,0,0,0,0,0,0,0,0,0,0,0,0,0,0,0,0,0,0,0,0,0,0,0,0,0,0,0,0,0,0,0,0,0,0,0,0,0,0,0,0,0.0245,0.0246,0,0.0311,0.0311,0.0312,0.0346,0.0346,0.0346,0.0346,0.0415,0.0417,0.0419,0,0,0,0,0,0,0,0,0,0,0,0,0,0.015,0.0151,0.0245,0.0246,0.0247,0.0311,0.0311,0.0312,0.0346,0.0346,0.0346,0.0346,0.0414,0.0417,0.0419,0,0,0,0,0,0,0,0,0,0,0,0,0,0.0201,0.0152,0.0245,0.0271,0.0274,0.031,0.0312,0.0313,0.0346,0.0346,0.0346,0.0346,0.0414,0.0416,0.0419,0.0435,0,0,0.0427,0.0428,0,0,0,0,0,0,0,0,0.0198,0.0204,0.0267,0.027,0.0273,0.032,0.0303,0.0354,0.0346,0.0319,0.0346,0.0346,0.0384,0.0389,0.0401,0.0438,0.0441,0.0427,0.0429,0.043,0.0431,0,0,0,0,0,0,0,0.0194,0.0202,0.0271,0.0268,0.0271,0.028,0.0287,0.0313,0.035,0.0321,0.0324,0.0331,0.0385,0.0398,0.0403,0.0442,0.0427,0.043,0.0431,0.0433,0.0493,0.0493,0,0,0,0,0,0,0.0186,0.0198,0.0269,0.0273,0.0235,0.0281,0.029,0.0305,0.035,0.0357,0.0331,0.0332,0.0394,0.04,0.0405,0.0426,0.043,0.0433,0.0434,0.0493,0.0493,0.0493,0,0,0,0,0,0,0.0184,0.0192,0.0267,0.0237,0.0247,0.0283,0.03,0.0306,0.0319,0.0357,0.0364,0.0337,0.0394,0.0402,0.0427,0.0429,0.0434,0.0436,0.0493,0.0493,0.0493,0.0467,0,0,0,0,0,0,0.0181,0.0191,0.0198,0.0236,0.0248,0.0287,0.03,0.0308,0.0324,0.0326,0.0365,0.0372,0.0395,0.0422,0.0429,0.0432,0.0439,0.0493,0.0493,0.0493,0.0468,0.0466,0.0464,0,0,0,0,0,0.0178,0.0189,0.0198,0.0206,0.0257,0.0287,0.0293,0.0319,0.0324,0.033,0.0354,0.037,0.0427,0.0425,0.0433,0.0437,0.0493,0.0493,0.0493,0.0468,0.0466,0.0464,0,0,0,0,0,0,0.0151,0.0195,0.0205,0.0229,0.0254,0.0292,0.0302,0.0316,0.0341,0.0342,0.0373,0.0382,0.0403,0.0423,0.0419,0.0453,0.0461,0.0463,0.044,0.0438,0.0437,0.0432,0.0441,0,0,0,0,0,0.0148,0.0168,0.0205,0.0222,0.0234,0.0265,0.028,0.0297,0.0324,0.0335,0.0361,0.0387,0.041,0.0425,0.0449,0.047,0.0478,0.0476,0.0475,0.0473,0.0474,0.0485,0.0485,0.0492,0.0492,0.0492,0,0,0.0142,0.0168,0.0179,0.0218,0.0239,0.0259,0.0274,0.0296,0.0311,0.0338,0.0363,0.0382,0.0413,0.0436,0.0447,0.0453,0.0474,0.0473,0.0472,0.0474,0.0485,0.0484,0.0484,0.0492,0.0492,0.0492,0,0,0.0141,0.0163,0.0179,0.0199,0.023,0.0251,0.0254,0.029,0.0304,0.0329,0.0349,0.0368,0.0408,0.0428,0.0444,0.0447,0.0463,0.0454,0.0446,0.0456,0.0456,0.0455,0.0456,0.0456,0.0455,0.0455,0.0455,0,0.013,0.0161,0.0186,0.0205,0.0221,0.0245,0.0261,0.028,0.0318,0.0328,0.0333,0.0382,0.0405,0.0431,0.0432,0.0444,0.0449,0.0451,0.0454,0.0453,0.0454,0.0454,0.0455,0.0454,0.0454,0.0454,0.0454,0,0.0145,0.0165,0.0175,0.0209,0.0226,0.0244,0.0271,0.0285,0.03,0.0319,0.0343,0.0371,0.04,0.0407,0.0423,0.0436,0.0438,0.0448,0.0457,0.0451,0.0452,0.0453,0.0452,0.0453,0.0453,0.0453,0,0,0.0131,0.0177,0.018,0.0195,0.023,0.0246,0.0264,0.0291,0.0302,0.0327,0.0342,0.0374,0.0382,0.04,0.0418,0.0427,0.0426,0.0435,0.0436,0.0432,0.0441,0.0433,0.0433,0.0436,0.0436,0.0436,0.0438,0,0.0135,0.0169,0.019,0.0215,0.0234,0.0255,0.0271,0.0294,0.0312,0.033,0.035,0.0372,0.0382,0.0392,0.0402,0.0424,0.0428,0.0424,0.045,0.0451,0.0443,0.0434,0.0427,0.0428,0.0439,0.0439,0.0439,0,0.0145,0.0167,0.0193,0.0224,0.0233,0.0246,0.0271,0.0289,0.0314,0.0327,0.0345,0.0362,0.0381,0.0387,0.0414,0.041,0.0422,0.0434,0.0434,0.0439,0.0445,0.0438,0.0429,0.0429,0.044,0.044,0.044,0,0.0132,0.0168,0.0188,0.02,0.0237,0.0245,0.0261,0.0286,0.03,0.0322,0.0332,0.0356,0.0369,0.0387,0.041,0.0413,0.0434,0.0442,0.0444,0.0444,0.0449,0.0448,0.0441,0.0455,0.0455,0.0455,0.0455,0,0.0135,0.015,0.0183,0.0195,0.0212,0.0236,0.0252,0.0269,0.0291,0.0307,0.0327,0.0341,0.037,0.0387,0.0405,0.0424,0.043,0.044,0.0445,0.0438,0.0437,0.0447,0.0448,0.0456,0.0455,0.0455,0.0455,0,0.0124,0.0147,0.0169,0.0201,0.0209,0.022,0.0247,0.0259,0.0277,0.0296,0.0302,0.033,0.0352,0.0376,0.0406,0.0417,0.0434,0.0441,0.0426,0.0428,0.0429,0.0428,0.0429,0.0429,0.0443,0.0442,0.0442,0,0.0125,0.0136,0.0168,0.0179,0.0194,0.0213,0.0226,0.025,0.0263,0.0292,0.03,0.0323,0.0342,0.0375,0.0398,0.042,0.0428,0.0426,0.0431,0.0424,0.0427,0.0426,0.0427,0.0425,0.0425,0.0424,0.0424,0,0.0123,0.0133,0.0152,0.0174,0.0189,0.0208,0.0228,0.0236,0.0263,0.0277,0.0299,0.0313,0.0342,0.0364,0.0388,0.0404,0.0419,0.0422,0.0423,0.0418,0.0408,0.0413,0.0422,0.0422,0.0422,0.0423,0.0423,0.0423,0.0118,0.0128,0.0152,0.0172,0.0188,0.0206,0.0218,0.0237,0.0255,0.028,0.0292,0.0313,0.0336,0.037,0.0385,0.0401,0.0406,0.0409,0.0409,0.041,0.0407,0.0404,0.0406,0.0406,0.0406,0.0406,0.0406,0,0.0117,0.0132,0.015,0.0176,0.0191,0.0202,0.0223,0.0235,0.0253,0.0273,0.0291,0.0314,0.0335,0.0358,0.038,0.0388,0.0395,0.0393,0.0393,0.0396,0.0402,0.0398,0.0387,0.0387,0.0387,0.0387,0.0387,0.0387,0.0118,0.0136,0.0148,0.0175,0.019,0.021,0.0221,0.0237,0.0252,0.0277,0.0294,0.0309,0.033,0.0352,0.0371,0.0377,0.0385,0.0381,0.0389,0.0394,0.0396,0.0398,0.0394,0.0382,0.0382,0.0381,0.0381,0.0381]},{"header":{"parameterUnit":"m.s-1","parameterCategory":1,"la1":30.2991,"la2":30.254,"lo1":-89.0895,"lo2":-89.0444,"dy":0.0017,"dx":0.0017,"nx":28,"ny":28,"refTime":"2025-01-29T03:00:00:Z","depth":0,"parameterNumber":3,"parameterNumberName":"V-component_of_WINDS"},"data":[0,0,0,0,0,0,0,0,0,0,0,0,0,0,0,0,0,0,0,0,0,0,0,0,0,0,0,0,0,0,0,0,0,0,0,0,0,0,0,0,0,0,0,0,0,0,0,0,0,0,0,0,0,0,0,0,0,0,1.9556,1.9556,0,1.9541,1.9541,1.9541,1.9591,1.9593,1.9594,1.9596,1.9575,1.9573,1.9571,0,0,0,0,0,0,0,0,0,0,0,0,0,1.9623,1.9622,1.9556,1.9556,1.9556,1.9541,1.9541,1.9541,1.9591,1.9593,1.9594,1.9596,1.9576,1.9574,1.9571,0,0,0,0,0,0,0,0,0,0,0,0,0,1.9599,1.9621,1.9556,1.9579,1.9581,1.9541,1.9541,1.9541,1.959,1.9593,1.9595,1.9597,1.9577,1.9574,1.9571,1.9507,0,0,1.9562,1.9561,0,0,0,0,0,0,0,0,1.9601,1.9597,1.9576,1.9577,1.958,1.9571,1.9557,1.9529,1.959,1.9587,1.9596,1.9598,1.9571,1.9569,1.9561,1.9506,1.9505,1.9562,1.956,1.9559,1.9558,0,0,0,0,0,0,0,1.9602,1.9598,1.955,1.9576,1.9578,1.9588,1.9588,1.9552,1.9566,1.9587,1.9591,1.9589,1.9573,1.9564,1.9561,1.9505,1.9562,1.9559,1.9557,1.9556,1.9394,1.9391,0,0,0,0,0,0,1.9602,1.9599,1.9551,1.955,1.9596,1.9585,1.9585,1.9571,1.9567,1.9568,1.9587,1.9591,1.9568,1.9564,1.956,1.9483,1.9559,1.9556,1.9554,1.9396,1.9393,1.9391,0,0,0,0,0,0,1.9603,1.9597,1.9551,1.9575,1.957,1.9582,1.9566,1.9569,1.9561,1.9567,1.9569,1.9575,1.9569,1.9565,1.952,1.9483,1.9554,1.9552,1.9399,1.9395,1.9392,1.933,0,0,0,0,0,0,1.9605,1.9597,1.9574,1.9574,1.9569,1.9512,1.9564,1.9568,1.9556,1.9561,1.9556,1.9557,1.9571,1.9524,1.9517,1.9481,1.9549,1.9403,1.9398,1.9393,1.9335,1.9324,1.9315,0,0,0,0,0,1.9607,1.9556,1.9573,1.9566,1.9541,1.951,1.9507,1.9524,1.9553,1.9529,1.9532,1.9558,1.9489,1.9519,1.9511,1.9474,1.9405,1.9399,1.9394,1.9339,1.9326,1.9315,0,0,0,0,0,0,1.955,1.9557,1.9575,1.9524,1.9516,1.9519,1.9489,1.951,1.9493,1.9498,1.952,1.9518,1.9469,1.9467,1.95,1.941,1.9452,1.9444,1.9413,1.9401,1.9391,1.9391,1.9547,0,0,0,0,0,1.9532,1.9508,1.9515,1.9468,1.9464,1.9477,1.9464,1.9479,1.9471,1.9467,1.9468,1.9458,1.9434,1.9418,1.9396,1.9336,1.9334,1.9306,1.9296,1.9288,1.928,1.9246,1.9233,1.9372,1.9372,1.9372,0,0,1.9493,1.9494,1.9477,1.9457,1.9453,1.9425,1.9474,1.9443,1.9423,1.9462,1.942,1.942,1.941,1.9356,1.9333,1.9353,1.9242,1.9281,1.9274,1.9271,1.9239,1.9225,1.9214,1.9368,1.9369,1.9369,0,0,1.9408,1.9408,1.9368,1.9363,1.9357,1.9366,1.9356,1.9356,1.9357,1.9316,1.9344,1.9319,1.9278,1.927,1.926,1.9171,1.9193,1.9164,1.9111,1.9077,1.9066,1.9056,1.9022,1.901,1.9157,1.9157,1.9157,0,1.936,1.9322,1.9345,1.9312,1.9301,1.9338,1.9297,1.9291,1.9276,1.9267,1.9291,1.924,1.9236,1.918,1.9158,1.915,1.9138,1.9163,1.9066,1.9057,1.9048,1.9015,1.9003,1.9153,1.9153,1.9154,1.9154,0,1.9263,1.9236,1.9204,1.9191,1.9177,1.914,1.9156,1.9138,1.9154,1.916,1.9115,1.9112,1.909,1.9078,1.9093,1.9023,1.9036,1.9063,1.9104,1.903,1.9,1.8988,1.9148,1.9149,1.915,1.9151,0,0,1.914,1.914,1.9128,1.9122,1.9117,1.9096,1.906,1.904,1.9023,1.9013,1.8981,1.8946,1.897,1.8959,1.8973,1.8944,1.8871,1.8974,1.8974,1.8953,1.8791,1.877,1.8755,1.8886,1.8884,1.8883,1.8791,0,1.9055,1.8995,1.9014,1.8953,1.8927,1.8961,1.8929,1.8922,1.8926,1.8904,1.8908,1.8882,1.8917,1.891,1.8883,1.8886,1.8838,1.8893,1.8855,1.8853,1.8854,1.874,1.8717,1.8631,1.878,1.8778,1.8777,0,1.8947,1.8933,1.8869,1.8868,1.8858,1.8829,1.8811,1.879,1.8782,1.8787,1.8774,1.8794,1.8757,1.88,1.8748,1.8784,1.877,1.8769,1.8766,1.8761,1.8809,1.8729,1.8605,1.8591,1.8759,1.876,1.8762,0,1.8861,1.8826,1.8783,1.8777,1.8775,1.8754,1.8752,1.8746,1.8732,1.8716,1.8707,1.8687,1.8674,1.8657,1.867,1.8701,1.8614,1.8659,1.8615,1.8615,1.8593,1.8594,1.8462,1.8588,1.8589,1.8589,1.8589,0,1.8763,1.8721,1.8744,1.8717,1.8672,1.8694,1.8647,1.8649,1.8644,1.8616,1.8645,1.8618,1.8638,1.8613,1.8623,1.8576,1.8571,1.8572,1.8575,1.8568,1.8568,1.8557,1.8562,1.8585,1.8586,1.8587,1.8587,0,1.8658,1.8672,1.8627,1.8629,1.8628,1.8594,1.8595,1.8569,1.8577,1.8541,1.8534,1.8544,1.8516,1.8528,1.8497,1.8504,1.8443,1.8455,1.8446,1.8448,1.8402,1.8406,1.8257,1.8238,1.8379,1.8377,1.8376,0,1.8592,1.8562,1.8561,1.8545,1.8542,1.8516,1.8502,1.8523,1.8507,1.8495,1.847,1.8444,1.8424,1.8376,1.8379,1.8356,1.8365,1.8315,1.8362,1.8356,1.8361,1.8362,1.8358,1.8305,1.8303,1.8302,1.8301,0,1.8474,1.8483,1.8463,1.8444,1.8427,1.8414,1.8402,1.8387,1.8407,1.8387,1.8359,1.8344,1.8313,1.8286,1.8265,1.8261,1.8282,1.8286,1.8274,1.8266,1.8261,1.8261,1.8418,1.8289,1.829,1.8291,1.8292,1.8292,1.8386,1.8359,1.8355,1.833,1.8324,1.8313,1.8288,1.8293,1.827,1.8247,1.8261,1.8227,1.8218,1.8192,1.8185,1.8158,1.8177,1.816,1.8156,1.815,1.8143,1.8268,1.8154,1.8154,1.8155,1.8155,1.8155,0,1.8267,1.8266,1.8244,1.8227,1.8208,1.8233,1.8222,1.8203,1.8173,1.8164,1.8145,1.8111,1.8085,1.8086,1.8062,1.8039,1.8049,1.8032,1.8032,1.803,1.8129,1.814,1.8025,1.8025,1.8025,1.8025,1.8025,1.8025,1.8203,1.8159,1.8167,1.8119,1.8118,1.8086,1.8077,1.8066,1.8059,1.8021,1.8,1.8002,1.7996,1.7971,1.7948,1.7949,1.7937,1.7916,1.792,1.8011,1.8024,1.8036,1.8047,1.7914,1.7914,1.7824,1.7823,1.7823]}]]